Location: Haulchin
(50.3172°N, 3.4360°E)
Time: 05:16:50
(UTC+00:00)

Cosmos 2333 Rocket - Pass Details

Date: 14 August 2024
Orbit: 839 x 863 km, 70.8° (Epoch: 16 September)

Event Time Altitude Azimuth Distance (km) Brightness Sun altitude
Exits shadow 00:33:07 55° 237° (WSW) 1,029 2.3 -24.8°
Maximum altitude 00:34:21 74° 301° (WNW) 901 2.3 -24.7°
Drops below altitude 10° 00:40:08 10° 27° (NNE) 2,513 5.7 -24.5°
Sets 00:42:38 0° 30° (NNE) 3,455 6.6 -24.4°
